| time (UTC) | temp F | wind direction | speed knots | gust knots | rain 1hr in | rain 24hr in | rain mn in | humidity % | barometer mb |
| 20260509101545 | 52 | 194 | 0.0 | 0.0 | 0.00 | 0.53 | 0.09 | 98 | 1007.5 |
| 20260509100050 | 52 | 194 | 0.0 | 2.6 | 0.00 | 0.53 | 0.09 | 98 | 1007.3 |
| 20260509094545 | 52 | 215 | 0.0 | 1.7 | 0.00 | 0.53 | 0.09 | 97 | 1007.4 |
| 20260509093044 | 52 | 191 | 0.9 | 4.3 | 0.01 | 0.53 | 0.09 | 97 | 1007.4 |
| 20260509091541 | 53 | 161 | 0.0 | 2.6 | 0.01 | 0.53 | 0.09 | 98 | 1007.5 |
| 20260509090139 | 53 | 194 | 0.9 | 6.1 | 0.02 | 0.53 | 0.09 | 97 | 1007.5 |
| 20260509084554 | 53 | 279 | 0.9 | 7.0 | 0.02 | 0.53 | 0.09 | 98 | 1007.8 |
| 20260509083058 | 53 | 183 | 1.7 | 6.1 | 0.01 | 0.52 | 0.08 | 98 | 1007.9 |
| 20260509081552 | 53 | 166 | 0.9 | 3.5 | 0.01 | 0.52 | 0.08 | 98 | 1007.9 |
| 20260509080151 | 53 | 188 | 0.0 | 2.6 | 0.00 | 0.51 | 0.07 | 98 | 1007.9 |
| 20260509074547 | 53 | 246 | 0.0 | 3.5 | 0.00 | 0.51 | 0.07 | 98 | 1007.9 |
| 20260509073043 | 53 | 179 | 0.9 | 3.5 | 0.01 | 0.51 | 0.07 | 98 | 1007.8 |
| 20260509071546 | 53 | 192 | 1.7 | 4.3 | 0.02 | 0.51 | 0.07 | 98 | 1007.9 |
| 20260509070140 | 53 | 185 | 0.9 | 2.6 | 0.03 | 0.51 | 0.07 | 98 | 1008.2 |
| 20260509064558 | 53 | 212 | 0.0 | 2.6 | 0.03 | 0.51 | 0.07 | 98 | 1008.4 |
| 20260509063052 | 53 | 212 | 0.0 | 1.7 | 0.04 | 0.50 | 0.06 | 98 | 1008.6 |
| 20260509061652 | 54 | 247 | 0.0 | 1.7 | 0.03 | 0.49 | 0.05 | 97 | 1008.7 |
| 20260509060149 | 54 | 162 | 2.6 | 5.2 | 0.02 | 0.48 | 0.04 | 97 | 1008.8 |
| 20260509054556 | 54 | 158 | 0.9 | 7.0 | 0.02 | 0.48 | 0.04 | 97 | 1009.3 |
| 20260509053041 | 53 | 175 | 0.9 | 5.2 | 0.00 | 0.46 | 0.02 | 97 | 1009.4 |
| 20260509051542 | 53 | 219 | 1.7 | 5.2 | 0.01 | 0.46 | 0.02 | 97 | 1009.4 |
| 20260509050139 | 53 | 318 | 0.0 | 5.2 | 0.01 | 0.46 | 0.02 | 97 | 1009.4 |
| 20260509044548 | 53 | 158 | 1.7 | 4.3 | 0.02 | 0.46 | 0.02 | 97 | 1009.4 |
| 20260509043057 | 53 | 148 | 0.0 | 4.3 | 0.02 | 0.46 | 0.02 | 97 | 1009.4 |
| 20260509041546 | 53 | 118 | 0.9 | 6.1 | 0.01 | 0.45 | 0.01 | 97 | 1009.4 |
| 20260509040145 | 53 | 194 | 1.7 | 6.1 | 0.02 | 0.45 | 0.01 | 97 | 1009.4 |
| 20260509034536 | 53 | 171 | 0.9 | 4.3 | 0.03 | 0.44 | 0.44 | 97 | 1009.5 |
| 20260509033036 | 53 | 164 | 2.6 | 5.2 | 0.04 | 0.44 | 0.44 | 97 | 1009.4 |
| 20260509031539 | 53 | 136 | 2.6 | 7.0 | 0.04 | 0.44 | 0.44 | 97 | 1009.4 |
| 20260509030134 | 53 | 198 | 1.7 | 4.3 | 0.04 | 0.43 | 0.43 | 97 | 1009.5 |
| 20260509024547 | 53 | 192 | 0.9 | 3.5 | 0.03 | 0.41 | 0.41 | 97 | 1009.6 |
| 20260509023047 | 53 | 165 | 0.9 | 2.6 | 0.03 | 0.40 | 0.40 | 96 | 1009.8 |
| 20260509021545 | 53 | 171 | 0.0 | 2.6 | 0.07 | 0.40 | 0.40 | 96 | 1009.8 |
| 20260509020146 | 53 | 241 | 2.6 | 8.7 | 0.09 | 0.39 | 0.39 | 97 | 1009.8 |
| 20260509014536 | 54 | 240 | 1.7 | 7.8 | 0.09 | 0.38 | 0.38 | 97 | 1009.7 |
| 20260509013041 | 54 | 236 | 0.9 | 3.5 | 0.10 | 0.37 | 0.37 | 97 | 1009.5 |
| 20260509011533 | 54 | 231 | 0.9 | 6.1 | 0.08 | 0.33 | 0.33 | 97 | 1009.6 |
| 20260509010134 | 54 | 192 | 0.9 | 4.3 | 0.06 | 0.30 | 0.30 | 96 | 1009.7 |
| 20260509004552 | 54 | 252 | 0.9 | 5.2 | 0.07 | 0.28 | 0.28 | 96 | 1009.6 |
| 20260509003049 | 54 | 270 | 0.9 | 5.2 | 0.07 | 0.27 | 0.27 | 96 | 1009.5 |
| 20260509001546 | 54 | 187 | 0.9 | 4.3 | 0.07 | 0.25 | 0.25 | 96 | 1009.5 |
| 20260509000145 | 54 | 204 | 0.0 | 6.1 | 0.08 | 0.24 | 0.24 | 96 | 1009.6 |
| 20260508234537 | 54 | 214 | 0.9 | 3.5 | 0.10 | 0.22 | 0.22 | 96 | 1010.0 |
| 20260508233037 | 54 | 202 | 0.0 | 3.5 | 0.10 | 0.20 | 0.20 | 95 | 1009.9 |
| 20260508231536 | 54 | 182 | 0.9 | 4.3 | 0.10 | 0.18 | 0.18 | 95 | 1009.7 |
| 20260508230136 | 54 | 185 | 0.9 | 3.5 | 0.08 | 0.15 | 0.15 | 95 | 1009.9 |
| 20260508224555 | 54 | 242 | 0.0 | 1.7 | 0.08 | 0.12 | 0.12 | 94 | 1010.5 |
| 20260508223050 | 54 | 298 | 0.0 | 0.0 | 0.09 | 0.10 | 0.10 | 94 | 1010.0 |
| 20260508221550 | 55 | 298 | 0.0 | 1.7 | 0.08 | 0.08 | 0.08 | 93 | 1010.1 |
| 20260508220148 | 55 | 274 | 0.0 | 1.7 | 0.07 | 0.07 | 0.07 | 93 | 1010.1 |
| 20260508214551 | 55 | 6 | 0.9 | 3.5 | 0.04 | 0.04 | 0.04 | 91 | 1010.3 |
| 20260508213057 | 56 | 323 | 1.7 | 6.1 | 0.01 | 0.01 | 0.01 | 88 | 1010.2 |
| 20260508211542 | 58 | 304 | 1.7 | 6.1 | 0.00 | 0.00 | 0.00 | 83 | 1009.9 |
| 20260508210141 | 60 | 289 | 0.0 | 0.9 | 0.00 | 0.00 | 0.00 | 78 | 1009.8 |
| 20260508204604 | 62 | 272 | 0.0 | 2.6 | 0.00 | 0.00 | 0.00 | 70 | 1009.7 |
| 20260508203058 | 63 | 179 | 0.9 | 4.3 | 0.00 | 0.00 | 0.00 | 65 | 1009.6 |
| 20260508201606 | 63 | 303 | 0.9 | 7.8 | 0.00 | 0.00 | 0.00 | 60 | 1009.7 |
| 20260508200151 | 63 | 256 | 1.7 | 5.2 | 0.00 | 0.00 | 0.00 | 60 | 1009.8 |
| 20260508194549 | 64 | 285 | 1.7 | 6.1 | 0.00 | 0.00 | 0.00 | 60 | 1009.8 |
| 20260508193054 | 64 | 149 | 2.6 | 7.8 | 0.00 | 0.00 | 0.00 | 61 | 1010.1 |
| 20260508191544 | 63 | 267 | 1.7 | 6.1 | 0.00 | 0.00 | 0.00 | 64 | 1010.4 |
| 20260508190142 | 63 | 308 | 0.9 | 3.5 | 0.00 | 0.00 | 0.00 | 65 | 1010.7 |
| 20260508184555 | 62 | 233 | 0.9 | 7.0 | 0.00 | 0.00 | 0.00 | 64 | 1010.9 |
| 20260508183055 | 62 | 310 | 1.7 | 6.1 | 0.00 | 0.00 | 0.00 | 64 | 1011.2 |
| 20260508181610 | 62 | 113 | 1.7 | 7.8 | 0.00 | 0.00 | 0.00 | 63 | 1011.4 |
| 20260508180150 | 62 | 210 | 2.6 | 7.8 | 0.00 | 0.00 | 0.00 | 63 | 1011.5 |
| 20260508174546 | 62 | 250 | 3.5 | 14.8 | 0.00 | 0.00 | 0.00 | 63 | 1011.6 |
| 20260508173048 | 62 | 178 | 4.3 | 11.3 | 0.00 | 0.00 | 0.00 | 63 | 1011.8 |
| 20260508171542 | 61 | 206 | 2.6 | 10.4 | 0.00 | 0.00 | 0.00 | 63 | 1012.0 |
| 20260508170140 | 62 | 209 | 3.5 | 13.0 | 0.00 | 0.00 | 0.00 | 62 | 1012.2 |
| 20260508164558 | 63 | 229 | 2.6 | 10.4 | 0.00 | 0.00 | 0.00 | 61 | 1012.3 |
| 20260508163053 | 62 | 174 | 2.6 | 7.8 | 0.00 | 0.00 | 0.00 | 63 | 1012.6 |
| 20260508161551 | 63 | 168 | 2.6 | 7.8 | 0.00 | 0.00 | 0.00 | 60 | 1012.9 |
| 20260508160149 | 63 | 144 | 2.6 | 10.4 | 0.00 | 0.00 | 0.00 | 61 | 1012.9 |
| 20260508154554 | 62 | 199 | 2.6 | 11.3 | 0.00 | 0.00 | 0.00 | 61 | 1013.0 |
| 20260508153046 | 62 | 334 | 1.7 | 7.8 | 0.00 | 0.00 | 0.00 | 63 | 1013.0 |
| 20260508151543 | 61 | 300 | 2.6 | 9.6 | 0.00 | 0.00 | 0.00 | 61 | 1013.1 |
| 20260508150142 | 61 | 216 | 2.6 | 8.7 | 0.00 | 0.00 | 0.00 | 62 | 1013.1 |
| 20260508144538 | 60 | 300 | 2.6 | 10.4 | 0.00 | 0.00 | 0.00 | 62 | 1013.2 |
| 20260508143037 | 59 | 196 | 3.5 | 9.6 | 0.00 | 0.00 | 0.00 | 62 | 1013.4 |
| 20260508141546 | 59 | 120 | 1.7 | 9.6 | 0.00 | 0.00 | 0.00 | 62 | 1013.6 |
| 20260508140133 | 58 | 187 | 3.5 | 9.6 | 0.00 | 0.00 | 0.00 | 63 | 1013.6 |
| 20260508134550 | 57 | 261 | 3.5 | 11.3 | 0.00 | 0.00 | 0.00 | 64 | 1013.7 |
| 20260508133051 | 56 | 185 | 2.6 | 7.0 | 0.00 | 0.00 | 0.00 | 63 | 1013.9 |
| 20260508131544 | 55 | 85 | 2.6 | 13.0 | 0.00 | 0.00 | 0.00 | 64 | 1013.9 |
| 20260508130143 | 55 | 123 | 2.6 | 9.6 | 0.00 | 0.00 | 0.00 | 64 | 1013.9 |
| 20260508124540 | 54 | 160 | 2.6 | 8.7 | 0.00 | 0.00 | 0.00 | 65 | 1013.8 |
| 20260508123037 | 53 | 163 | 1.7 | 7.8 | 0.00 | 0.00 | 0.00 | 67 | 1013.6 |
| 20260508121535 | 52 | 257 | 1.7 | 9.6 | 0.00 | 0.00 | 0.00 | 68 | 1013.9 |
| 20260508120133 | 51 | 315 | 0.9 | 7.8 | 0.00 | 0.00 | 0.00 | 69 | 1013.9 |
| 20260508114547 | 50 | 130 | 0.0 | 3.5 | 0.00 | 0.00 | 0.00 | 71 | 1013.9 |
| 20260508113055 | 48 | 140 | 1.7 | 6.1 | 0.00 | 0.00 | 0.00 | 72 | 1013.7 |
| 20260508111556 | 48 | 160 | 1.7 | 6.1 | 0.00 | 0.00 | 0.00 | 72 | 1013.7 |
| 20260508110144 | 48 | 155 | 1.7 | 3.5 | 0.00 | 0.00 | 0.00 | 72 | 1013.6 |
| 20260508104538 | 48 | 117 | 1.7 | 4.3 | 0.00 | 0.00 | 0.00 | 72 | 1013.5 |
| 20260508103048 | 48 | 202 | 0.9 | 3.5 | 0.00 | 0.00 | 0.00 | 72 | 1013.6 |